Location: Chakepay
(13.3931°S, 72.1925°W)
Time: 08:18:10
(UTC+00:00)

Cosmos 2221 - Pass Details

Date: 15 November 2019
Orbit: 594 x 615 km, 82.5° (Epoch: 11 December)

Event Time Altitude Azimuth Distance (km) Brightness Sun altitude
Rises 09:19:39 0° 9° (N) 2,860 5.8 -12.6°
Reaches altitude 10° 09:21:56 10° 15° (NNE) 1,959 5.1 -12.1°
Maximum altitude 09:26:04 44° 87° (E) 843 3.8 -11.2°
Drops below altitude 10° 09:30:13 10° 159° (SSE) 1,966 5.8 -10.2°
Sets 09:32:30 0° 166° (SSE) 2,872 6.5 -9.7°
